RH
5 5 5 5 5 6 6 5 5 9 8 8 7 12 14 32 36 39 53 80 62 88 31 40 70 57 74 83 92 77 79 79 79 67 79 78 95 83 83 89 98 97 94 91 86 95 96 90 85 90 96 97 99 97
6 6 7 7 6 6 6 6 5 6 7 7 7 14 12 26 35 32 46 58 49 56 33 78 92 85 91 87 87 66 76 98 100 99 93 94 78 93 85 87 86 97 99 97 94 97 97 97 96 96 96 96 95 98
7 7 7 9 9 7 6 6 6 6 7 7 8 12 12 13 39 37 40 54 54 38 29 38 41 47 41 38 40 48 67 93 99 99 100 100 98 94 86 83 98 72 92 78 82 97 94 95 95 96 95 92 95 96
8 8 8 9 11 10 8 8 10 10 11 12 11 13 14 13 30 44 40 52 63 62 44 44 30 40 56 86 91 94 94 95 96 98 100 100 99 98 94 98 99 97 96 91 87 96 95 79 93 90 86 78 94 96
8 8 8 10 12 13 13 10 10 11 11 11 12 12 12 13 21 41 45 52 71 70 63 32 37 50 67 74 86 93 100 85 84 97 98 98 98 99 99 100 97 94 93 88 77 80 80 66 78 86 70 55 78 85
9 9 9 9 12 11 12 13 11 11 10 8 6 6 9 17 40 48 46 49 62 66 67 52 39 48 59 69 78 81 91 78 89 100 100 98 97 97 100 100 99 94 92 94 80 83 82 81 77 78 71 74 70 72
11 9 10 10 10 8 7 10 10 9 7 6 6 7 7 17 44 56 56 45 51 65 59 51 41 63 64 63 73 64 71 92 99 98 98 98 99 97 97 94 90 89 88 87 86 80 73 74 65 66 64 68 71 74
15 9 10 9 8 6 5 6 7 7 9 7 7 8 9 9 27 48 52 44 52 54 62 70 82 81 68 75 64 67 90 97 97 97 97 96 98 95 97 97 92 78 69 69 74 76 69 67 63 60 63 63 66 87
24 9 9 9 6 4 4 5 6 6 7 8 8 10 10 11 33 45 49 48 50 52 63 81 92 87 82 72 75 75 90 98 97 94 90 86 92 90 96 88 88 87 82 74 74 83 96 83 73 65 59 65 74 71
25 9 8 8 5 4 5 6 7 8 9 10 12 14 14 10 36 44 48 51 54 53 72 63 63 79 88 72 77 86 91 100 96 95 97 84 100 100 100 100 98 94 93 89 84 77 86 95 87 83 74 80 85 81
15 9 9 6 5 4 5 7 9 11 11 10 13 9 9 22 47 45 55 58 57 49 58 51 53 75 91 78 85 94 100 97 96 97 96 88 95 100 100 100 96 93 94 98 100 100 100 100 99 99 100 100 100 100
12 9 9 5 4 5 7 10 12 10 7 5 6 9 24 55 53 58 64 70 78 66 62 50 52 66 91 81 87 99 100 96 96 88 82 88 98 100 100 98 96 92 92 94 97 99 100 100 98 97 99 98 98 100
14 9 7 5 6 8 11 12 9 4 3 5 10 32 60 62 71 75 88 92 89 84 63 50 50 71 94 91 99 100 99 90 90 77 84 97 100 100 100 99 97 97 97 98 99 100 99 99 99 99 99 99 97 99
17 10 5 6 9 11 12 7 3 3 6 10 31 66 71 91 93 97 100 99 94 88 74 59 53 78 94 94 100 96 94 93 80 82 92 98 98 98 99 100 99 98 98 99 99 99 99 99 99 99 97 98 98 99
22 9 5 9 11 8 5 3 2 4 14 31 69 84 93 95 98 100 100 99 100 93 83 70 56 66 97 94 95 92 91 81 84 91 96 98 98 98 99 100 100 100 100 100 99 99 99 99 98 99 98 98 99 96
15 6 8 10 10 5 3 3 3 8 30 51 74 80 82 88 96 100 100 98 94 92 88 77 69 83 94 93 97 92 93 95 98 98 99 100 100 100 100 100 100 100 100 100 100 100 100 99 99 99 98 99 97 98
10 6 10 11 9 4 3 3 6 13 49 54 55 53 44 64 83 72 58 64 72 77 83 91 75 82 83 92 93 94 99 100 100 100 100 100 100 100 100 98 100 100 100 100 100 99 98 99 100 99 99 99 100 100
7 8 10 12 9 3 3 4 9 9 25 38 35 30 41 47 46 60 72 76 75 82 95 99 96 97 98 100 100 100 100 100 100 100 100 100 100 100 100 100 99 98 98 98 96 94 94 96 97 99 98 100 99 99
7 9 11 10 4 3 4 8 16 10 15 22 28 43 34 39 56 62 65 73 80 90 99 99 100 100 100 100 100 100 100 100 100 100 100 100 100 100 100 100 100 100 100 99 99 98 97 94 94 97 98 98 97 98
8 10 11 4 4 5 5 10 16 12 18 20 34 27 32 46 61 65 73 82 83 92 99 98 98 100 100 100 100 100 100 100 100 100 100 100 100 100 100 100 100 100 100 100 100 100 100 100 100 100 99 100 100 100
9 11 8 4 5 6 7 11 14 11 16 23 28 27 30 59 58 70 77 69 60 60 60 66 79 87 95 99 100 100 100 100 100 100 100 100 100 100 100 100 100 100 100 100 100 100 100 96 82 71 65 62 63 65
12 11 4 4 6 8 8 12 12 13 14 16 27 26 30 50 51 58 73 62 62 67 68 65 62 60 66 71 75 78 84 89 91 95 98 100 100 100 100 100 100 100 100 100 100 99 90 80 75 72 71 70 66 65
12 8 4 7 8 8 10 12 12 14 14 21 25 24 33 49 48 56 79 72 71 67 59 57 56 58 64 68 73 75 77 81 82 83 84 86 88 93 99 100 100 100 100 100 100 97 88 84 82 80 80 79 76 73
12 6 7 8 8 10 11 13 14 16 16 22 25 31 40 48 51 71 94 83 73 58 50 57 65 65 65 64 64 65 66 74 89 97 91 98 100 99 98 99 100 100 100 100 98 98 100 100 100 97 93 91 88 83
10 7 8 8 10 11 14 14 14 18 19 23 26 36 42 48 53 89 95 83 68 74 72 50 46 42 35 38 52 75 86 92 81 75 78 75 77 89 99 99 100 100 100 100 100 100 100 100 100 100 100 100 100 93
6 8 7 10 11 14 14 16 22 22 25 31 40 41 49 46 79 95 96 87 78 70 69 75 73 51 38 33 33 40 51 63 82 98 100 100 100 100 94 92 94 96 95 99 100 100 100 100 100 100 100 96 90 87
6 6 7 9 12 14 16 21 23 27 30 41 49 54 54 75 95 100 100 91 92 99 98 95 79 55 45 44 47 51 54 63 67 68 72 75 81 95 100 100 100 100 97 94 99 98 100 100 100 100 100 96 90 85
7 8 9 12 15 19 24 28 32 34 40 51 54 59 71 87 100 100 100 100 100 100 97 87 65 56 59 63 64 64 64 62 60 62 70 84 89 87 84 92 100 100 100 100 100 100 95 92 95 91 86 90 80 67
7 10 14 17 21 26 30 36 41 45 43 44 53 69 84 98 100 100 100 100 100 100 80 67 72 82 89 94 95 91 90 87 84 79 72 70 82 99 100 100 95 95 99 100 100 100 100 100 100 96 98 94 80 72
11 15 18 22 25 31 36 41 46 51 49 53 62 82 100 100 100 100 100 100 97 77 82 94 90 89 89 85 86 99 100 100 99 93 88 85 80 77 75 86 98 100 100 96 97 100 100 100 100 100 99 100 100 100
17 19 21 20 24 32 29 32 43 37 44 62 70 83 100 100 100 100 100 88 88 99 98 99 98 92 90 89 86 83 84 88 92 94 94 92 91 87 83 79 74 74 84 95 100 100 99 98 98 100 100 100 100 100
17 19 20 21 24 24 30 35 30 36 54 71 80 89 100 100 100 92 87 95 100 100 100 100 95 92 89 84 78 76 72 70 72 71 72 73 75 81 85 84 82 78 74 72 84 100 100 100 100 100 98 99 100 100
18 19 20 21 22 29 35 25 37 46 72 81 86 100 100 100 96 100 100 97 97 98 98 98 94 80 75 74 76 83 85 85 84 83 81 78 75 71 67 68 71 76 77 74 70 73 88 100 100 100 100 100 100 100
Wind_Speed
36 39 40 40 40 41 40 38 33 32 35 38 41 43 46 46 42 40 32 23 24 31 18 21 22 16 17 17 19 23 24 15 19 17 7 12 9 14 16 18 16 14 10 12 13 6 6 27 26 18 17 22 15 12
35 37 39 39 40 42 41 38 36 35 38 40 39 39 42 43 40 41 33 25 24 26 20 14 10 9 13 11 15 25 20 19 14 12 14 8 17 7 18 10 19 10 19 12 11 8 10 17 20 18 19 24 26 11
34 36 38 39 39 40 40 38 36 37 39 39 39 39 41 39 36 38 37 26 24 24 11 17 10 11 15 12 12 18 16 20 17 17 19 13 6 11 12 8 15 23 13 12 11 1 16 9 12 19 23 27 25 24
34 37 39 40 40 39 37 37 36 37 39 40 39 38 40 37 35 34 36 26 23 27 19 21 9 11 10 10 12 15 18 20 21 18 17 23 26 15 15 19 23 24 22 19 16 15 15 11 18 24 23 27 26 20
34 37 39 41 41 40 37 36 36 37 39 39 40 39 40 39 33 30 30 27 23 21 23 13 5 8 14 17 15 12 14 26 27 19 21 26 25 17 13 12 5 17 22 25 25 25 30 24 24 25 27 27 24 23
35 37 39 42 43 41 40 38 37 37 38 40 40 41 41 36 28 25 28 26 24 22 22 12 2 12 22 18 10 13 20 26 18 13 18 16 18 13 7 4 7 19 21 27 31 34 33 31 29 30 32 27 21 20
35 37 40 43 44 42 41 39 37 36 39 37 37 38 41 38 33 25 20 19 23 22 19 9 7 23 29 25 28 19 13 8 5 8 6 12 14 9 4 12 23 26 24 24 25 33 36 31 32 29 27 22 21 20
35 37 41 44 43 41 40 38 36 37 38 38 36 37 40 41 37 26 14 16 16 18 16 9 24 27 31 31 24 16 9 9 3 3 3 2 1 2 2 23 25 28 28 25 25 27 32 34 31 28 26 24 20 19
35 36 40 42 41 39 40 41 40 41 41 41 41 40 40 39 32 21 10 14 11 14 11 12 25 25 31 28 19 14 11 6 4 12 8 8 10 12 19 22 24 28 31 32 26 25 22 21 25 23 25 23 19 20
34 36 40 41 40 39 41 44 45 46 47 47 46 45 39 33 22 13 8 15 9 11 12 19 29 31 26 23 17 10 8 7 5 7 3 12 18 14 16 20 22 25 28 30 29 19 15 14 17 19 20 21 19 18
31 35 39 40 39 40 43 46 49 52 53 53 49 41 23 17 11 5 8 10 10 9 16 31 32 30 19 19 11 8 8 6 3 4 2 5 11 15 16 18 20 22 25 27 29 28 22 16 11 9 9 11 11 11
29 34 37 38 39 41 44 46 50 53 51 46 33 14 11 8 4 4 9 9 9 9 26 30 30 26 14 12 6 6 5 5 3 6 2 3 12 13 15 17 19 22 22 23 25 26 26 23 18 12 6 1 1 3
27 33 35 35 39 42 45 47 50 48 39 30 14 9 7 6 6 7 10 11 15 22 26 28 28 21 10 8 4 5 3 3 3 2 2 7 10 12 13 15 16 18 19 20 21 23 23 23 22 20 18 17 17 15
27 32 32 34 39 42 45 47 46 36 31 15 7 6 5 4 8 13 16 18 21 23 23 25 25 14 11 5 4 4 3 2 0 1 2 6 7 10 12 13 14 16 17 18 20 20 20 20 21 20 19 18 17 16
28 30 31 34 39 41 45 42 36 29 19 6 4 5 8 15 16 17 18 20 20 22 22 22 21 14 8 4 3 4 3 1 1 0 3 5 7 8 10 11 12 13 14 16 17 18 18 17 16 16 16 14 13 13
29 29 30 35 38 43 40 36 29 19 10 3 4 11 14 16 18 19 19 19 20 20 21 20 16 6 4 4 4 3 2 2 2 3 5 6 7 8 9 9 10 11 12 14 15 15 15 14 14 15 14 11 10 9
26 28 32 37 38 43 36 29 21 11 5 7 10 14 17 18 20 22 24 24 23 22 19 15 6 4 8 4 4 2 2 3 4 6 7 7 8 9 9 10 11 10 10 10 11 12 13 12 12 12 9 8 8 7
25 28 34 37 39 39 31 23 15 6 9 12 17 20 18 19 22 22 22 21 21 18 16 12 11 10 6 3 3 3 4 6 7 8 9 10 11 11 11 10 10 10 10 10 10 11 11 11 10 9 8 7 5 4
24 30 35 36 39 32 26 16 13 11 9 14 18 17 20 21 20 21 20 20 19 16 14 11 5 5 5 4 5 7 8 8 9 10 10 11 12 12 12 12 11 10 10 11 12 11 11 10 10 9 8 6 5 4
26 31 32 38 32 26 18 9 13 12 13 18 14 17 20 19 20 20 19 18 16 12 9 6 7 8 8 9 9 10 11 11 11 11 12 13 13 13 13 12 12 12 12 12 11 11 11 10 9 9 8 7 7 6
27 29 34 33 27 22 12 10 13 14 16 13 15 19 19 17 18 17 14 13 10 9 10 10 9 9 10 10 11 12 13 13 14 14 13 13 13 14 14 14 13 13 13 13 13 12 11 10 9 8 9 9 9 8
28 29 34 29 23 14 9 10 15 18 16 16 15 21 18 15 16 15 13 10 9 10 12 13 12 12 13 13 14 14 14 15 16 17 18 17 17 17 16 16 16 16 15 14 14 14 14 13 13 13 12 11 10 9
25 31 30 23 9 6 7 16 19 18 18 14 18 20 17 15 16 18 8 9 9 11 13 14 14 15 15 16 16 16 16 16 17 17 18 18 18 18 17 17 16 16 16 16 17 17 16 16 14 12 11 10 9 8
26 29 18 6 6 9 16 18 18 18 18 17 22 21 15 13 18 16 9 7 10 13 15 15 15 16 18 18 18 18 19 19 19 20 19 18 18 19 18 18 18 18 18 18 18 17 15 14 13 12 11 11 11 11
25 13 7 8 8 15 17 18 20 19 20 22 20 11 9 16 19 11 6 7 11 11 12 14 17 19 20 20 21 21 22 20 18 17 20 19 19 19 19 19 19 19 19 18 18 17 16 16 16 15 15 14 15 16
14 5 6 10 16 18 20 18 17 22 21 17 9 10 17 18 8 4 4 8 8 7 11 15 20 23 24 25 24 23 22 22 22 20 21 21 20 18 17 18 19 19 19 18 18 18 18 18 18 17 18 18 18 16
7 8 14 20 20 20 21 21 20 18 14 8 11 18 12 6 4 4 7 8 8 12 16 22 26 28 28 27 26 25 25 24 24 22 21 21 21 21 20 18 17 18 18 16 17 18 17 17 18 18 17 17 16 16
10 16 19 20 20 20 20 19 17 10 9 11 17 17 8 6 7 9 9 10 12 17 25 28 30 30 29 28 28 27 24 24 24 24 23 22 22 21 21 20 19 19 18 17 17 17 17 16 17 18 16 16 17 14
16 18 18 19 19 19 17 16 15 17 19 20 22 16 12 13 13 13 12 14 17 25 29 28 28 28 28 29 30 31 30 28 27 24 22 21 19 21 21 21 21 21 21 20 20 19 17 16 17 18 14 14 16 15
16 17 18 19 19 17 16 16 18 19 18 16 14 12 10 11 12 13 14 17 26 30 31 32 34 35 34 33 29 28 30 29 28 27 25 22 21 20 20 20 21 21 21 20 20 21 21 20 19 19 17 16 15 15
15 16 18 19 17 17 17 18 17 16 16 14 12 9 9 10 11 12 16 26 29 31 33 33 33 35 34 32 28 25 23 22 21 21 21 21 21 20 20 20 20 20 20 20 20 20 20 20 20 21 20 19 19 18
15 16 18 19 18 17 18 14 16 16 16 13 10 11 9 8 10 20 27 30 32 33 34 35 34 31 29 28 27 26 26 24 23 22 21 20 20 19 20 20 19 20 20 18 17 17 17 17 18 18 18 19 19 19
14 17 19 19 19 18 14 18 14 16 12 10 13 9 8 12 24 30 33 36 37 37 36 33 30 29 28 28 27 27 27 26 26 25 23 23 22 21 21 19 19 19 18 17 17 17 17 18 18 18 18 18 18 19
Wind_Direction
351 355 356 356 356 354 351 350 349 344 340 339 339 340 345 348 349 345 345 338 328 321 355 337 325 315 314 315 311 331 333 326 339 346 358 356 341 343 345 341 11 22 11 11 10 19 36 357 24 51 2 7 338 289
347 350 352 353 353 353 352 348 346 343 341 338 336 338 340 345 348 353 349 339 343 339 349 358 16 343 341 330 320 327 316 321 306 313 314 331 333 317 351 335 2 21 4 347 10 339 347 339 350 1 354 356 8 319
343 346 348 349 349 351 352 350 346 344 342 341 339 337 337 340 341 351 355 342 339 349 16 357 350 328 333 341 326 322 337 339 311 304 308 319 304 311 323 320 325 326 327 315 327 322 309 333 339 331 338 341 346 356
338 341 344 346 346 346 347 349 348 347 348 349 345 342 342 340 337 335 350 350 340 342 342 357 334 353 0 6 351 343 1 348 350 310 292 291 297 309 304 311 314 326 331 326 318 299 284 328 323 317 333 331 333 341
332 336 340 343 343 342 340 339 341 343 344 343 344 341 341 340 334 335 343 355 345 343 339 356 45 25 1 341 333 345 332 333 329 322 295 293 301 316 328 296 334 334 334 332 309 310 302 310 316 316 318 323 327 331
329 333 337 339 340 340 339 337 337 340 342 342 344 345 346 344 343 339 346 352 353 352 344 350 187 346 339 334 322 325 312 315 309 303 299 295 294 285 284 312 356 335 317 311 307 304 304 309 309 314 313 315 310 313
326 330 335 337 338 340 338 338 339 340 342 344 345 342 342 348 349 341 342 348 358 0 358 4 343 331 343 345 331 323 334 338 8 315 277 256 246 235 210 356 330 336 334 322 312 302 299 300 302 302 304 306 309 300
324 327 332 335 337 337 337 338 338 338 337 339 338 337 334 341 345 341 343 357 4 12 13 343 342 339 354 354 352 3 38 37 342 254 275 280 10 343 4 2 350 337 328 320 313 300 293 296 298 301 300 297 295 297
320 324 329 333 335 335 336 335 335 334 333 332 332 332 335 342 341 339 343 349 349 2 355 345 343 339 342 352 355 1 32 329 35 39 58 37 54 30 359 358 357 356 350 342 333 316 305 282 279 279 283 283 282 284
317 321 327 331 332 332 332 332 333 333 331 330 331 336 340 333 336 338 354 346 340 340 348 345 338 339 338 349 358 6 11 351 355 31 43 53 48 26 9 1 359 2 1 358 354 341 316 295 281 272 268 271 272 269
316 320 326 330 331 330 331 331 332 332 330 333 333 336 331 337 339 4 3 353 332 335 338 336 342 339 335 347 359 15 339 319 25 17 32 65 17 19 9 3 4 6 8 10 13 14 8 355 338 300 279 268 266 258
316 319 325 328 329 329 330 330 331 331 331 330 333 352 360 358 12 11 354 352 331 328 331 336 338 340 340 343 347 326 325 332 36 14 39 42 4 4 6 3 4 10 11 14 18 24 29 33 33 32 31 13 220 178
314 317 324 327 328 328 329 330 332 333 334 339 6 1 3 3 18 352 344 338 334 335 339 339 341 338 329 338 312 319 314 351 338 5 79 8 360 354 5 14 4 6 10 15 21 26 29 34 41 49 60 71 78 86
312 316 323 325 327 329 330 332 335 338 342 351 1 9 11 359 346 335 330 331 332 333 333 334 335 327 315 310 303 290 299 320 17 89 9 347 354 359 5 9 8 11 14 16 20 23 28 32 35 39 48 56 64 78
311 317 321 325 327 330 332 334 338 341 346 8 3 10 344 327 325 325 328 328 325 324 328 330 329 317 309 293 285 286 281 264 127 102 319 330 340 350 357 2 6 11 16 19 22 23 23 28 33 38 43 48 57 63
311 315 320 325 328 333 334 336 337 335 347 350 331 325 321 322 325 323 316 318 322 326 329 332 322 287 277 281 265 263 258 238 249 284 304 315 322 329 338 345 352 358 5 10 14 19 20 20 26 33 35 38 49 62
311 315 322 327 328 332 334 335 332 330 321 336 336 327 322 318 320 321 321 322 322 322 323 321 285 267 293 265 256 239 240 266 277 289 299 304 306 310 317 325 333 339 343 348 353 358 1 7 17 24 22 28 40 46
311 318 323 326 328 331 332 331 334 314 308 315 325 327 327 327 325 325 324 325 326 326 322 308 290 276 272 278 291 304 303 303 299 299 301 305 307 306 305 306 308 311 317 323 329 336 344 349 352 355 357 3 12 37
313 320 324 325 328 329 331 319 327 329 313 324 324 327 330 331 332 333 335 336 337 336 330 318 305 320 338 327 326 319 316 312 311 309 306 306 305 304 303 304 304 304 307 312 317 322 326 328 331 333 333 334 340 343
315 320 324 325 326 328 326 305 318 328 324 326 321 332 333 331 333 336 339 342 343 341 343 344 349 347 341 334 325 321 318 314 311 310 309 308 306 304 303 302 301 301 302 303 305 309 313 319 322 323 321 319 316 313
315 320 322 321 321 320 314 304 323 321 324 317 319 330 331 324 332 335 334 342 351 6 16 12 2 350 337 328 322 318 315 313 312 310 306 300 298 298 298 298 298 298 298 300 302 303 303 305 306 303 302 303 303 300
318 319 320 318 315 310 304 306 322 326 319 315 310 323 324 317 326 329 322 333 351 5 5 357 348 339 331 326 321 318 315 311 309 307 305 303 301 298 296 295 295 294 293 293 294 294 295 294 294 295 294 290 284 278
313 321 317 316 302 308 299 316 320 323 324 314 315 323 321 312 322 326 299 319 346 355 353 346 339 334 330 326 322 319 316 312 308 306 304 302 301 299 296 293 290 288 288 289 291 294 295 295 293 290 287 285 285 285
314 320 312 297 296 299 311 317 317 320 324 319 322 314 303 309 323 318 287 311 340 350 351 354 355 351 346 342 335 327 321 316 312 307 303 300 298 296 294 292 290 289 288 289 290 291 291 290 288 285 283 282 281 282
318 316 301 292 298 313 317 310 316 322 323 322 318 308 292 309 317 292 271 323 348 355 359 0 356 354 349 340 331 324 321 319 316 310 305 306 301 297 294 290 288 287 285 285 284 283 282 282 281 281 282 283 285 288
315 281 296 310 316 319 320 316 317 321 321 321 300 306 309 313 287 250 286 335 344 348 352 352 352 350 345 340 332 325 319 314 311 310 308 308 306 302 296 291 289 288 286 284 283 281 279 277 275 276 277 279 281 282
284 283 305 314 318 318 318 322 323 322 317 306 307 317 321 280 267 262 312 324 318 327 335 343 345 344 341 335 329 326 323 319 315 313 308 304 300 297 296 295 291 286 284 284 280 279 278 277 277 276 275 278 280 281
294 307 316 320 320 323 325 326 330 322 310 311 313 319 293 267 283 289 296 303 318 329 340 341 341 338 333 330 326 325 325 322 320 318 313 308 302 297 293 290 287 287 287 285 279 278 277 275 273 274 274 274 275 276
311 318 321 324 327 332 332 330 327 319 316 313 314 314 292 284 287 281 283 297 318 336 338 336 333 331 329 329 325 321 319 316 313 311 309 307 302 297 295 291 286 281 277 277 279 280 278 275 270 269 272 267 270 274
323 325 328 331 335 336 332 330 327 326 325 326 328 325 316 308 302 294 301 323 335 336 333 332 330 328 324 321 319 317 314 313 312 309 307 304 301 299 296 291 286 282 280 278 272 269 268 269 271 273 271 269 267 266
328 331 333 339 342 341 338 336 337 338 337 341 345 351 347 329 320 311 325 333 336 334 333 330 326 325 325 324 324 323 319 318 317 315 313 310 306 302 298 293 291 288 284 280 277 273 270 269 267 267 267 267 267 266
335 338 341 347 349 347 345 347 348 343 343 355 6 1 4 10 357 337 339 339 337 335 333 333 333 333 334 335 335 335 334 334 331 327 322 316 310 305 297 295 293 290 290 290 287 280 272 268 266 264 262 261 260 261
342 346 349 353 356 357 356 353 351 341 345 1 3 359 356 350 349 345 341 338 339 339 340 340 340 338 338 339 339 336 333 331 328 326 324 322 318 314 311 308 301 295 291 286 281 278 275 270 265 261 260 261 261 261